Location: Friaudour
(46.0460°N, 1.2873°E)
Time: 10:42:52
(UTC+00:00)

SL-8 R/B - Pass Details

Date: 14 July 2020
Orbit: 656 x 668 km, 48.4° (Epoch: 06 August)

Event Time Altitude Azimuth Distance (km) Brightness Sun altitude
Exits shadow 01:46:36 29° 245° (WSW) 1,220 4.6 -18.2°
Maximum altitude 01:49:05 84° 161° (SSE) 672 3.6 -18.0°
Drops below altitude 10° 01:53:54 10° 72° (ENE) 2,081 6.9 -17.6°
Sets 01:56:15 0° 72° (ENE) 2,993 7.8 -17.4°
